Vorticity
9 9 9 9 9 9 9 9 8 8 8 9 9 9 9 9 9 9 9 9 9 9 9 9 9 9 9 9 9 8 8 8 8 7 7 7 7 8 8 8 8 9 9 9 10 10 10 10 11 11 11 11 13 15 16 15 8 6 6 10 14 16 17 17 14 11 9 7 6
9 9 9 9 9 9 9 9 9 9 9 9 10 10 10 10 10 10 10 10 10 9 9 9 9 9 9 9 8 8 8 8 8 9 9 9 9 9 10 10 10 11 11 11 11 11 12 12 12 12 12 13 15 16 14 8 3 3 5 10 15 17 15 9 3 2 3 6 7
9 9 9 9 9 9 9 9 9 10 10 10 10 10 10 10 10 10 10 10 9 9 9 9 9 9 9 9 9 9 9 10 10 10 11 11 11 12 12 12 12 12 13 12 12 13 13 14 15 14 14 15 15 12 9 5 6 8 12 15 17 14 8 -3 -5 -2 3 8 8
9 9 9 9 9 9 9 9 10 10 10 10 10 10 10 10 10 10 10 9 9 10 10 10 10 10 10 10 11 11 12 12 12 12 13 13 13 13 13 13 13 13 13 13 13 13 14 15 16 16 16 15 11 8 7 6 10 16 20 23 15 4 -7 -11 -4 3 8 10 8
8 8 9 9 9 9 9 10 10 10 10 10 10 10 10 10 10 10 10 11 11 12 12 12 12 12 12 13 13 13 14 14 14 14 15 15 14 14 14 14 13 13 13 13 13 14 14 15 14 13 10 6 6 6 7 9 15 18 17 9 -1 -7 -7 -2 5 9 10 8 6
9 9 9 9 9 9 9 9 9 9 10 10 10 10 11 11 11 12 12 13 13 13 13 14 14 14 14 15 15 15 15 15 15 15 15 15 14 14 14 14 13 13 14 15 15 15 14 13 9 5 3 4 7 9 11 12 11 6 1 -3 -1 2 6 10 10 9 8 5 3
9 9 9 9 9 9 9 9 9 10 10 10 11 11 12 12 12 13 13 13 13 14 15 15 15 15 15 16 16 15 15 14 15 15 14 14 13 13 13 13 13 13 13 13 13 11 10 8 7 8 10 11 12 13 13 12 10 7 6 6 9 10 11 8 5 4 3 1 1
9 9 9 9 9 9 10 10 10 10 11 11 11 12 12 12 13 13 14 14 15 15 15 15 15 15 15 14 14 13 13 12 12 12 12 12 12 12 12 12 13 13 13 14 13 13 13 12 12 12 12 11 11 11 11 12 11 11 12 12 10 7 3 1 -0 0 1 0 2
9 9 9 9 10 10 10 10 10 10 11 11 11 12 12 13 13 13 14 14 14 14 14 14 13 13 12 12 11 11 10 10 10 10 11 11 11 11 11 12 12 13 13 13 13 13 12 11 11 10 9 9 8 8 7 7 6 5 4 3 1 0 -0 1 3 4 6 7 8
9 9 9 10 10 10 10 10 10 11 11 11 11 12 12 13 13 13 14 14 13 13 13 12 11 10 10 10 9 9 9 9 9 9 9 10 10 10 11 11 12 12 13 13 13 13 12 11 10 10 9 9 8 7 7 5 4 3 2 2 3 4 6 7 9 10 11 12 11
9 9 9 10 10 10 10 10 10 10 10 11 11 12 12 13 13 13 13 13 12 12 11 10 9 9 8 8 8 8 8 8 8 9 9 9 10 10 11 11 12 12 12 13 13 13 12 12 12 11 11 11 10 9 8 7 6 5 6 7 8 9 10 11 12 12 12 11 11
9 9 10 10 10 10 10 10 10 10 10 10 11 11 12 12 13 13 12 12 11 10 9 8 8 7 7 7 7 7 8 8 8 9 9 10 10 11 11 11 12 12 12 12 12 12 12 12 12 11 11 11 11 10 10 9 9 9 10 10 11 11 12 12 11 11 11 10 10
9 9 9 10 10 10 9 9 10 10 10 10 11 11 12 12 13 12 12 11 10 9 8 8 7 7 7 7 7 7 8 8 9 9 10 10 10 11 11 11 11 12 12 11 11 11 12 11 11 11 11 11 11 11 10 10 10 10 11 11 11 12 12 11 11 11 10 10 9
9 9 9 9 10 10 10 10 10 10 10 11 11 12 12 12 12 12 11 11 10 9 8 7 8 8 8 7 8 8 8 9 10 10 11 11 11 11 11 11 11 11 11 11 11 11 11 11 11 11 11 10 10 10 10 10 11 11 11 11 11 11 11 11 10 10 9 9 8
9 9 9 10 10 10 10 10 10 10 11 11 12 12 13 13 13 12 11 11 10 9 8 8 8 8 8 8 9 9 10 10 11 11 12 12 12 12 11 11 11 11 11 10 10 10 10 10 10 9 9 9 9 10 10 10 11 11 11 11 11 10 10 10 9 9 8 8 8
9 10 10 10 10 11 11 11 11 11 11 12 13 13 14 14 13 13 12 11 10 10 9 9 8 8 9 10 10 11 11 12 12 12 13 12 12 12 12 11 11 11 11 10 9 9 9 9 8 8 8 8 9 9 10 10 10 10 10 10 10 9 9 9 8 8 8 9 10
10 10 11 11 11 11 11 11 11 12 12 13 14 15 15 15 14 13 12 11 10 10 9 9 9 9 9 10 11 12 12 13 13 13 13 13 12 12 12 12 11 11 10 10 9 9 8 8 8 8 8 8 9 9 9 10 10 10 10 9 9 9 8 8 8 9 10 11 13
11 11 11 12 12 12 12 12 12 13 14 15 15 15 15 15 14 13 12 11 10 10 9 9 9 10 10 11 12 12 13 12 13 13 12 12 12 12 11 11 10 10 9 9 8 8 8 8 8 8 8 9 9 9 9 9 10 9 9 9 9 9 9 9 10 11 13 14 15
12 12 12 12 13 13 13 13 13 14 14 15 15 15 14 14 12 11 10 10 9 9 9 9 9 10 10 10 10 11 11 11 11 11 11 10 10 10 9 9 9 8 8 8 7 7 7 7 8 8 8 9 9 10 10 10 10 10 10 10 10 10 11 12 13 15 15 15 15
14 14 13 13 14 14 14 14 14 14 14 14 14 13 12 11 10 9 9 8 8 8 8 8 8 9 9 9 9 9 10 10 9 9 9 8 8 8 7 7 7 7 7 7 7 7 7 8 8 9 9 10 11 11 12 12 12 12 12 12 12 13 14 15 16 16 15 14 13
15 15 15 15 15 15 15 14 14 13 13 12 12 11 10 8 8 8 7 7 7 8 8 8 8 9 9 9 9 9 9 8 8 8 7 7 7 7 6 6 6 6 6 7 7 8 8 9 10 10 11 12 13 14 14 14 14 14 15 15 16 16 16 16 15 14 13 12 12
16 16 15 15 15 15 15 14 13 12 11 10 9 8 7 7 7 7 7 7 8 9 9 9 10 10 10 10 10 9 9 9 8 8 8 7 7 7 7 7 7 7 7 8 9 9 10 11 12 14 15 16 17 18 18 17 17 17 17 17 17 16 15 14 13 12 12 12 13
16 16 16 16 15 15 14 12 11 10 9 8 7 7 7 7 8 8 9 10 10 11 11 11 11 11 11 11 11 11 10 10 9 9 9 8 8 8 8 8 8 9 9 10 11 12 13 14 16 18 19 20 20 20 20 19 18 17 17 16 14 13 12 12 12 13 14 15 17
17 16 16 15 14 13 12 11 9 9 8 7 8 8 9 10 11 11 12 13 13 13 13 13 13 12 12 12 11 11 11 10 10 10 10 9 9 9 9 10 11 11 12 13 14 16 17 19 20 21 22 22 21 20 19 18 16 15 14 12 11 11 12 13 15 16 18 20 21
17 16 16 15 14 12 11 10 10 9 10 10 11 11 12 13 14 14 14 14 14 14 13 13 13 12 12 11 11 11 11 11 10 10 10 11 11 11 12 12 14 14 15 16 18 20 21 23 22 22 21 20 18 17 16 14 13 12 11 11 12 13 15 17 19 21 21 22 21
16 16 16 15 14 13 13 12 12 12 13 13 14 15 15 15 15 15 14 14 13 13 12 12 12 11 11 11 11 11 11 11 11 12 12 13 13 14 15 16 17 18 19 20 22 23 23 23 21 20 18 16 15 13 12 10 10 11 12 14 16 18 20 21 22 21 20 18 15
15 15 15 15 15 15 15 15 15 15 15 15 15 15 15 14 14 13 12 12 12 11 11 11 11 11 11 11 12 12 13 13 14 14 15 15 16 17 18 19 20 21 22 23 23 22 21 19 17 16 14 12 11 10 10 10 12 14 17 19 21 21 21 20 18 16 13 11 8
14 14 14 14 15 15 15 15 15 15 14 14 13 13 12 12 12 11 11 11 11 11 11 11 11 12 12 13 14 14 15 15 16 17 17 18 19 20 20 21 21 22 22 22 20 19 17 15 13 11 10 9 9 10 12 14 17 19 20 21 20 19 17 14 11 9 7 6 6
12 12 13 13 13 13 13 13 13 12 12 11 11 11 11 11 10 10 10 10 11 11 11 13 13 14 14 15 16 17 17 18 18 19 19 20 21 22 22 21 21 20 19 18 16 14 12 11 10 9 9 10 12 14 16 18 19 20 19 17 15 12 9 7 6 5 5 5 5
12 12 12 12 11 11 11 11 10 10 10 10 10 10 10 10 10 10 11 11 12 13 14 15 15 15 16 17 18 18 19 20 20 20 21 21 21 21 20 19 18 16 14 13 11 10 9 8 9 10 11 13 16 17 18 18 17 15 13 10 8 6 5 5 5 5 5 5 5
13 12 12 12 12 11 11 11 10 10 10 11 11 11 11 11 11 11 12 13 14 15 15 15 16 17 18 18 19 19 20 20 20 21 21 20 19 17 16 15 13 11 10 9 9 9 9 10 11 13 15 16 17 17 16 14 12 10 7 5 5 4 4 4 5 5 5 5 5
13 13 13 13 13 12 12 12 12 11 11 11 11 11 11 11 12 13 13 14 15 15 16 17 18 18 19 19 20 20 19 19 19 18 17 16 14 13 11 10 9 9 8 9 9 10 12 13 14 16 16 16 15 13 11 9 7 6 4 4 4 4 4 5 5 5 5 5 5
13 13 14 14 13 13 13 13 12 12 12 12 12 12 12 12 13 14 14 15 16 16 17 18 18 18 19 18 18 18 17 16 15 14 13 12 11 9 9 8 9 9 10 11 12 13 14 15 15 15 15 13 11 9 7 5 4 4 4 4 4 4 5 5 5 5 5 5 5
13 13 13 13 13 13 13 13 13 13 13 13 13 12 13 13 14 15 15 16 16 17 17 17 17 17 16 15 15 14 13 12 11 10 10 9 9 9 9 10 11 12 13 14 14 15 15 15 14 13 11 9 7 5 4 4 4 4 4 4 4 5 5 5 5 5 4 4 4
12 12 13 13 13 13 13 13 14 14 14 13 13 13 13 14 15 16 16 16 16 16 16 16 15 14 13 12 12 11 10 9 9 9 9 9 10 11 11 12 13 14 15 15 15 14 14 13 11 9 7 6 5 4 4 4 4 4 4 4 5 5 5 5 4 4 4 4 5
12 12 12 13 13 13 13 14 14 14 14 13 13 13 14 14 15 16 16 15 15 14 14 13 12 12 11 10 10 10 10 10 10 10 11 12 12 13 14 14 15 15 15 14 13 12 11 9 7 6 5 4 4 4 4 4 4 4 4 4 4 4 4 5 5 5 5 6 6
12 12 12 13 13 13 14 14 14 14 14 13 13 13 14 15 15 15 15 14 13 13 12 11 11 10 10 10 10 11 11 12 12 13 13 14 14 14 15 15 14 14 13 12 11 9 7 6 5 4 4 4 4 4 4 4 5 5 5 5 5 5 5 6 6 7 7 8 8
11 12 12 13 13 13 14 14 14 14 13 13 13 14 14 15 15 15 14 14 13 12 12 11 11 11 12 12 12 13 14 14 14 14 15 15 15 14 14 13 12 11 10 9 7 6 5 4 4 4 4 4 4 4 4 4 4 5 5 5 6 6 7 8 8 8 9 9 9
11 11 12 12 13 13 13 14 14 13 13 13 13 13 14 14 14 14 14 14 14 13 13 13 13 13 14 14 14 14 15 15 15 15 15 14 13 13 12 11 9 8 7 6 5 5 4 4 4 4 4 5 4 4 5 5 5 5 6 6 7 7 8 9 9 9 9 9 9
11 11 11 12 12 13 13 13 13 13 12 12 13 13 13 13 14 14 14 14 14 14 14 14 14 15 15 15 15 15 15 14 14 14 13 12 11 10 10 9 7 5 4 5 4 4 4 4 4 4 4 5 5 5 5 6 6 6 7 8 8 8 8 8 9 9 9 9 10
10 11 11 12 12 12 13 13 12 12 12 12 12 12 13 13 14 14 14 14 14 14 14 14 15 15 15 14 14 14 14 13 12 12 11 10 9 8 8 7 6 5 4 4 4 5 5 5 5 5 5 5 5 5 6 6 7 7 7 8 8 8 8 8 9 9 10 10 10
Height
3136 3136 3135 3135 3135 3135 3135 3134 3134 3133 3133 3133 3132 3132 3131 3131 3131 3130 3130 3130 3129 3129 3129 3129 3129 3129 3129 3129 3129 3129 3129 3129 3129 3129 3128 3128 3128 3128 3128 3128 3128 3128 3128 3128 3127 3127 3127 3127 3127 3127 3127 3127 3127 3127 3127 3127 3127 3126 3125 3125 3125 3125 3125 3125 3125 3125 3125 3125 3124
3133 3133 3133 3133 3133 3133 3133 3132 3132 3131 3131 3130 3130 3129 3129 3128 3128 3128 3128 3127 3127 3127 3127 3127 3127 3126 3126 3126 3126 3126 3126 3126 3126 3126 3126 3126 3125 3125 3125 3125 3125 3125 3125 3125 3125 3125 3125 3125 3125 3125 3125 3125 3125 3125 3125 3125 3125 3124 3124 3124 3123 3123 3123 3123 3123 3123 3123 3123 3122
3131 3131 3131 3131 3130 3130 3130 3130 3129 3129 3128 3128 3128 3127 3127 3126 3126 3125 3125 3125 3124 3124 3124 3124 3124 3124 3123 3123 3123 3123 3123 3123 3123 3123 3123 3123 3123 3123 3123 3123 3123 3123 3123 3123 3123 3123 3123 3123 3123 3123 3123 3123 3123 3123 3123 3123 3123 3123 3123 3123 3122 3122 3121 3121 3120 3120 3120 3120 3120
3129 3128 3128 3128 3128 3128 3128 3127 3127 3126 3126 3126 3125 3125 3124 3124 3123 3123 3123 3123 3122 3122 3122 3122 3121 3121 3121 3121 3121 3121 3121 3121 3121 3121 3121 3121 3120 3120 3120 3120 3120 3120 3120 3121 3121 3121 3121 3121 3121 3121 3121 3121 3121 3121 3121 3121 3121 3121 3121 3121 3121 3120 3120 3119 3118 3118 3118 3118 3118
3126 3126 3126 3126 3125 3125 3125 3125 3124 3124 3124 3123 3123 3123 3122 3122 3121 3121 3120 3120 3120 3119 3119 3119 3119 3118 3118 3118 3118 3118 3118 3118 3118 3118 3118 3118 3118 3118 3118 3118 3118 3118 3118 3118 3118 3118 3118 3118 3119 3119 3119 3119 3119 3119 3119 3119 3118 3119 3119 3119 3119 3118 3118 3117 3117 3117 3117 3116 3116
3124 3124 3123 3123 3123 3123 3123 3122 3122 3122 3121 3121 3121 3120 3120 3119 3119 3118 3118 3118 3118 3117 3117 3117 3116 3116 3116 3116 3116 3116 3116 3116 3116 3116 3116 3116 3116 3116 3116 3116 3116 3116 3116 3117 3117 3116 3116 3117 3117 3117 3117 3117 3117 3117 3117 3117 3117 3117 3117 3117 3116 3116 3116 3115 3115 3115 3115 3114 3114
3122 3122 3121 3121 3121 3120 3120 3120 3119 3119 3119 3118 3118 3118 3118 3117 3117 3116 3116 3115 3115 3115 3114 3114 3114 3114 3114 3114 3114 3114 3113 3113 3113 3114 3114 3114 3114 3114 3113 3113 3114 3114 3114 3114 3114 3114 3114 3115 3115 3115 3114 3114 3114 3114 3114 3115 3115 3114 3114 3114 3114 3114 3114 3113 3113 3113 3113 3113 3112
3119 3119 3119 3118 3118 3118 3118 3117 3117 3117 3117 3116 3116 3116 3115 3115 3114 3114 3113 3113 3113 3113 3112 3112 3112 3112 3112 3112 3112 3112 3112 3112 3112 3112 3112 3112 3112 3112 3112 3112 3112 3112 3112 3112 3112 3112 3112 3112 3112 3112 3112 3112 3112 3113 3112 3112 3112 3112 3112 3112 3111 3112 3111 3111 3111 3111 3111 3111 3110
3117 3117 3117 3116 3116 3115 3115 3115 3114 3114 3114 3114 3113 3113 3113 3112 3112 3112 3111 3111 3110 3110 3110 3110 3110 3109 3109 3109 3109 3109 3109 3109 3109 3109 3109 3109 3109 3109 3109 3109 3109 3109 3109 3109 3109 3110 3110 3110 3110 3110 3110 3110 3110 3110 3110 3110 3110 3110 3110 3110 3109 3109 3109 3109 3109 3109 3108 3108 3108
3115 3114 3114 3114 3113 3113 3113 3112 3112 3112 3111 3111 3111 3111 3110 3110 3109 3109 3109 3108 3108 3108 3108 3108 3108 3108 3108 3108 3108 3108 3108 3108 3108 3108 3107 3107 3107 3107 3107 3107 3107 3107 3107 3107 3107 3107 3107 3107 3108 3108 3108 3108 3108 3108 3108 3108 3108 3108 3108 3108 3107 3107 3107 3107 3107 3106 3106 3106 3106
3112 3112 3112 3111 3111 3110 3110 3110 3109 3109 3109 3109 3108 3108 3108 3108 3107 3107 3107 3106 3106 3106 3106 3106 3105 3105 3105 3105 3105 3105 3105 3105 3105 3105 3105 3105 3105 3105 3105 3105 3105 3105 3105 3105 3105 3105 3105 3105 3105 3105 3105 3105 3105 3106 3106 3106 3106 3105 3105 3105 3105 3105 3105 3105 3104 3104 3104 3104 3103
3110 3109 3109 3108 3108 3108 3108 3107 3107 3107 3107 3106 3106 3106 3106 3105 3105 3104 3104 3104 3104 3104 3103 3103 3103 3103 3103 3103 3103 3103 3103 3103 3103 3103 3103 3103 3103 3103 3103 3103 3103 3103 3103 3103 3103 3103 3103 3103 3103 3103 3103 3103 3103 3103 3103 3103 3103 3103 3103 3103 3103 3103 3103 3103 3102 3102 3102 3102 3101
3107 3107 3106 3106 3106 3106 3105 3105 3104 3104 3104 3104 3104 3103 3103 3103 3103 3102 3102 3102 3102 3102 3101 3101 3101 3101 3101 3101 3101 3101 3101 3101 3101 3101 3101 3101 3100 3100 3100 3100 3100 3100 3101 3101 3101 3101 3101 3101 3101 3101 3101 3101 3101 3101 3101 3101 3101 3101 3101 3101 3101 3101 3100 3100 3100 3100 3100 3099 3099
3104 3104 3104 3103 3103 3103 3103 3103 3102 3102 3102 3102 3101 3101 3101 3101 3100 3100 3100 3099 3099 3099 3099 3099 3099 3099 3099 3099 3099 3099 3099 3098 3098 3098 3098 3098 3098 3098 3098 3098 3098 3098 3098 3098 3098 3098 3099 3099 3099 3099 3099 3099 3099 3099 3099 3099 3099 3098 3098 3098 3098 3098 3098 3098 3098 3098 3098 3097 3097
3102 3102 3101 3101 3101 3101 3100 3100 3100 3099 3099 3099 3099 3099 3098 3098 3098 3098 3098 3097 3097 3097 3097 3097 3097 3097 3097 3097 3097 3097 3097 3096 3096 3096 3096 3096 3096 3096 3096 3096 3096 3096 3096 3096 3096 3096 3096 3097 3097 3097 3097 3097 3097 3097 3097 3097 3097 3096 3096 3096 3096 3096 3096 3096 3096 3096 3095 3095 3095
3099 3099 3099 3099 3098 3098 3098 3098 3097 3097 3097 3097 3097 3097 3096 3096 3096 3095 3095 3095 3095 3095 3095 3095 3095 3095 3094 3094 3094 3094 3094 3094 3094 3094 3094 3094 3094 3094 3093 3093 3093 3094 3094 3094 3094 3094 3094 3094 3094 3094 3094 3094 3094 3094 3094 3094 3094 3094 3094 3094 3094 3094 3093 3093 3093 3093 3093 3093 3093
3097 3097 3097 3096 3096 3096 3095 3095 3095 3095 3095 3095 3094 3094 3094 3094 3093 3093 3093 3093 3093 3093 3093 3093 3093 3093 3092 3092 3092 3092 3092 3092 3092 3092 3092 3092 3092 3092 3092 3092 3092 3092 3092 3092 3092 3092 3092 3092 3092 3092 3092 3092 3092 3092 3092 3092 3093 3092 3092 3092 3092 3092 3092 3092 3091 3091 3091 3091 3090
3094 3094 3094 3094 3093 3093 3093 3093 3093 3092 3092 3092 3092 3092 3092 3092 3091 3091 3091 3091 3091 3091 3091 3091 3090 3090 3090 3090 3090 3090 3090 3090 3089 3089 3089 3089 3089 3089 3089 3090 3090 3090 3090 3090 3090 3090 3090 3090 3090 3090 3090 3090 3090 3090 3090 3090 3090 3090 3090 3090 3090 3090 3090 3090 3089 3089 3089 3088 3088
3092 3092 3092 3091 3091 3091 3090 3090 3090 3090 3090 3090 3090 3090 3089 3089 3089 3089 3089 3089 3089 3089 3089 3088 3088 3088 3088 3088 3088 3088 3088 3088 3088 3087 3087 3087 3087 3087 3088 3088 3088 3088 3088 3088 3088 3088 3088 3088 3088 3088 3088 3088 3088 3088 3088 3088 3088 3088 3088 3088 3088 3088 3088 3088 3088 3087 3087 3087 3086
3090 3089 3089 3089 3088 3088 3088 3088 3088 3088 3088 3088 3088 3088 3088 3087 3087 3087 3087 3087 3087 3087 3087 3086 3086 3086 3086 3086 3086 3086 3086 3086 3085 3085 3085 3085 3085 3085 3085 3085 3086 3086 3086 3086 3086 3086 3086 3086 3086 3086 3086 3086 3086 3086 3086 3086 3086 3086 3086 3086 3086 3086 3086 3086 3086 3085 3085 3085 3084
3087 3087 3087 3086 3086 3086 3086 3086 3085 3085 3085 3085 3085 3085 3085 3085 3085 3085 3085 3085 3085 3084 3084 3084 3084 3084 3084 3084 3084 3084 3083 3083 3083 3083 3083 3083 3083 3083 3083 3083 3083 3083 3083 3083 3083 3083 3084 3084 3084 3084 3084 3084 3084 3084 3084 3084 3084 3084 3084 3084 3084 3084 3084 3084 3084 3083 3083 3083 3083
3085 3085 3084 3084 3084 3084 3083 3083 3083 3083 3083 3083 3083 3083 3083 3083 3083 3083 3083 3083 3082 3082 3082 3082 3082 3082 3082 3082 3082 3082 3081 3081 3081 3081 3081 3081 3081 3081 3081 3081 3081 3081 3081 3081 3081 3081 3081 3081 3082 3082 3082 3082 3082 3082 3083 3083 3083 3083 3083 3083 3083 3083 3082 3082 3082 3082 3082 3082 3081
3083 3083 3082 3082 3082 3082 3082 3081 3081 3081 3081 3081 3081 3081 3081 3081 3081 3081 3080 3080 3080 3080 3080 3080 3079 3079 3079 3079 3079 3079 3079 3079 3079 3079 3079 3079 3079 3079 3079 3079 3079 3079 3079 3079 3079 3079 3079 3079 3079 3079 3080 3080 3080 3080 3081 3081 3081 3081 3081 3081 3081 3081 3081 3081 3081 3080 3080 3080 3080
3081 3080 3080 3080 3080 3080 3079 3079 3079 3079 3079 3079 3079 3079 3079 3079 3078 3078 3078 3078 3078 3078 3078 3077 3077 3077 3077 3077 3077 3077 3077 3077 3077 3077 3077 3077 3077 3077 3077 3077 3077 3077 3077 3077 3077 3077 3077 3077 3077 3078 3078 3078 3078 3078 3079 3079 3079 3079 3079 3079 3079 3079 3079 3079 3079 3079 3079 3078 3078
3079 3078 3078 3078 3078 3078 3078 3077 3077 3077 3077 3077 3077 3077 3077 3077 3076 3076 3076 3076 3076 3075 3075 3075 3075 3075 3075 3075 3075 3075 3075 3075 3075 3075 3075 3075 3075 3075 3075 3075 3075 3075 3075 3075 3075 3075 3075 3075 3075 3076 3076 3076 3077 3077 3077 3077 3078 3078 3078 3078 3078 3078 3078 3078 3078 3078 3078 3077 3077
3077 3077 3076 3076 3076 3076 3075 3075 3075 3075 3075 3075 3075 3075 3075 3074 3074 3074 3074 3074 3073 3073 3073 3073 3073 3073 3073 3073 3073 3073 3073 3073 3073 3073 3073 3073 3073 3073 3073 3073 3073 3073 3073 3073 3073 3073 3073 3074 3074 3074 3074 3075 3075 3075 3076 3076 3076 3076 3076 3076 3076 3076 3076 3076 3076 3076 3076 3076 3076
3075 3075 3075 3074 3074 3074 3073 3073 3073 3073 3073 3073 3073 3073 3073 3073 3072 3072 3072 3072 3072 3071 3071 3071 3071 3071 3071 3071 3071 3071 3071 3071 3070 3070 3070 3070 3070 3070 3070 3070 3071 3071 3071 3071 3071 3072 3072 3073 3073 3073 3073 3073 3074 3074 3074 3075 3075 3075 3075 3075 3075 3075 3075 3075 3075 3075 3076 3076 3076
3074 3073 3073 3073 3072 3072 3072 3072 3072 3072 3072 3071 3071 3071 3071 3071 3070 3070 3070 3070 3070 3069 3069 3069 3069 3069 3069 3069 3069 3069 3068 3068 3068 3068 3068 3068 3068 3068 3068 3069 3069 3069 3069 3070 3070 3071 3071 3071 3072 3072 3072 3073 3073 3073 3073 3073 3073 3074 3074 3074 3074 3074 3074 3074 3074 3075 3075 3075 3074
3072 3072 3071 3071 3071 3071 3070 3070 3070 3070 3070 3070 3069 3069 3069 3069 3069 3068 3068 3068 3068 3068 3068 3068 3067 3067 3067 3067 3067 3067 3067 3067 3067 3067 3067 3067 3067 3067 3067 3067 3068 3068 3068 3069 3069 3069 3070 3070 3071 3071 3071 3071 3072 3072 3072 3072 3073 3073 3073 3073 3073 3073 3073 3073 3073 3073 3073 3073 3073
3071 3070 3070 3070 3069 3069 3069 3069 3069 3068 3068 3068 3068 3068 3068 3067 3067 3067 3067 3066 3066 3066 3066 3066 3065 3065 3065 3065 3065 3065 3065 3065 3065 3065 3065 3065 3065 3066 3066 3066 3067 3067 3068 3068 3068 3069 3069 3069 3069 3070 3070 3070 3070 3071 3071 3071 3071 3072 3072 3072 3072 3073 3073 3073 3073 3073 3073 3072 3072
3069 3069 3068 3068 3068 3068 3068 3067 3067 3067 3067 3067 3066 3066 3066 3066 3065 3065 3065 3064 3064 3064 3064 3064 3064 3063 3063 3063 3063 3063 3063 3063 3063 3064 3064 3064 3064 3065 3065 3066 3066 3066 3067 3067 3067 3068 3068 3068 3068 3068 3069 3069 3069 3070 3070 3070 3071 3071 3071 3071 3072 3072 3072 3072 3072 3071 3071 3071 3071
3068 3067 3067 3067 3066 3066 3066 3066 3066 3065 3065 3065 3065 3064 3064 3064 3063 3063 3063 3063 3063 3063 3063 3062 3062 3062 3062 3062 3062 3062 3062 3062 3063 3063 3063 3063 3063 3064 3064 3065 3065 3065 3066 3066 3066 3067 3067 3067 3067 3068 3068 3068 3069 3069 3069 3070 3070 3070 3070 3070 3070 3070 3070 3070 3070 3070 3070 3070 3070
3066 3066 3065 3065 3065 3065 3064 3064 3064 3064 3064 3063 3063 3063 3063 3062 3062 3062 3062 3062 3061 3061 3061 3061 3061 3061 3061 3061 3061 3061 3061 3061 3062 3062 3062 3063 3063 3063 3063 3064 3064 3064 3065 3065 3065 3065 3066 3066 3067 3067 3067 3068 3068 3068 3069 3069 3069 3069 3069 3069 3069 3069 3069 3069 3069 3069 3069 3069 3069
3064 3064 3064 3064 3063 3063 3063 3063 3063 3062 3062 3062 3062 3061 3061 3061 3061 3060 3060 3060 3060 3060 3060 3060 3060 3060 3060 3060 3060 3060 3060 3061 3061 3061 3062 3062 3062 3063 3063 3063 3063 3063 3064 3064 3064 3065 3065 3066 3066 3066 3067 3067 3068 3068 3068 3068 3068 3068 3068 3068 3068 3068 3068 3068 3068 3068 3068 3068 3068
3063 3063 3063 3062 3062 3062 3061 3061 3061 3061 3060 3060 3060 3060 3060 3059 3059 3059 3059 3059 3059 3059 3059 3059 3059 3059 3059 3059 3059 3059 3060 3060 3060 3061 3061 3061 3061 3062 3062 3062 3062 3063 3063 3063 3064 3064 3065 3065 3066 3066 3067 3067 3067 3067 3067 3068 3068 3068 3068 3068 3068 3068 3068 3068 3068 3068 3068 3068 3067
3062 3061 3061 3061 3061 3060 3060 3060 3059 3059 3059 3059 3058 3058 3058 3058 3058 3058 3058 3058 3058 3058 3058 3058 3058 3058 3058 3058 3058 3059 3059 3059 3059 3060 3060 3060 3060 3061 3061 3061 3062 3062 3062 3063 3063 3064 3064 3065 3065 3066 3066 3066 3066 3066 3066 3067 3067 3067 3067 3067 3067 3067 3067 3067 3067 3067 3067 3066 3066
3060 3060 3060 3059 3059 3059 3059 3058 3058 3058 3058 3058 3057 3057 3057 3057 3057 3057 3057 3057 3057 3057 3057 3057 3057 3057 3058 3058 3058 3058 3058 3058 3059 3059 3059 3059 3060 3060 3060 3061 3061 3062 3062 3063 3063 3063 3064 3064 3065 3065 3065 3065 3065 3065 3066 3066 3066 3066 3066 3066 3066 3066 3066 3066 3066 3066 3065 3065 3065
3059 3058 3058 3058 3058 3058 3057 3057 3057 3057 3056 3056 3056 3056 3056 3056 3056 3056 3056 3056 3056 3056 3056 3056 3056 3057 3057 3057 3057 3057 3058 3058 3058 3058 3058 3059 3059 3059 3060 3060 3061 3061 3062 3062 3063 3063 3063 3064 3064 3064 3064 3064 3064 3064 3065 3065 3065 3065 3065 3065 3065 3065 3065 3065 3065 3064 3064 3063 3063
3058 3057 3057 3057 3057 3056 3056 3056 3056 3055 3055 3055 3055 3055 3055 3055 3055 3055 3055 3055 3055 3055 3055 3055 3056 3056 3056 3056 3057 3057 3057 3057 3058 3058 3058 3058 3059 3059 3060 3060 3061 3061 3061 3062 3062 3063 3063 3063 3063 3063 3063 3063 3063 3064 3064 3064 3064 3064 3064 3064 3064 3064 3064 3063 3063 3063 3063 3062 3062
3056 3056 3056 3056 3055 3055 3055 3055 3054 3054 3054 3054 3054 3054 3054 3054 3054 3054 3054 3054 3054 3054 3055 3055 3055 3055 3055 3056 3056 3056 3056 3057 3057 3057 3058 3058 3058 3059 3059 3060 3060 3061 3061 3061 3062 3062 3062 3062 3062 3062 3062 3063 3063 3063 3063 3063 3063 3063 3063 3063 3063 3063 3063 3062 3062 3062 3062 3061 3061
3055 3055 3054 3054 3054 3054 3054 3053 3053 3053 3053 3053 3053 3053 3053 3053 3053 3053 3053 3053 3054 3054 3054 3054 3054 3055 3055 3055 3055 3056 3056 3056 3057 3057 3057 3058 3058 3058 3059 3059 3060 3060 3060 3060 3061 3061 3061 3061 3061 3061 3062 3062 3062 3062 3062 3062 3062 3062 3062 3062 3062 3062 3061 3061 3061 3061 3060 3060 3059